DELTA 1 DEB, 29010

Orbit data source: Space-Track

DELTA 1 DEB, 29010 is space debris in LEO originally from a launch on Sat, 06 Nov 1965 UTC launched from the Air Force Eastern Test Range (AFETR). Debris objects in space refer to the collection of defunct objects orbiting the Earth. Examples of debris include non-operational satellites, rocket bodies, and fragments generated from explosions, collisions, or faulty payload assembly.

Loading next visibility...
DELTA 1 DEB details
Identifier
29010, 1965-089H
Orbit
LEO
Last TLE update3 months ago
Origin
Flag of USGSFC (US)
ManufacturerUnknown
MissionSpacecraft
Bus & MotorUnknown
MassUnknown
Launch date (UTC)
1965-11-06 (59 years ago)
Launch vehicleUnknown
Launch site
Air Force Eastern Test Range (AFETR)
Object type
Payload
Rocket body
Debris
Shape & HBRUnknown
Radar Cross SectionSmall (<0.1 m²)

Expand to show TLE details & history

TLE from 3 months ago
0 DELTA 1 DEB
1 29010U 65089H   24278.04333541  .00002514  00000-0  14083-1 0  9995
2 29010  59.2688  81.3709 0684964 116.6859 349.9107 12.09122220915091
Epoch: 2024-10-04T01:02Z
Definitive object data (Epoch: 2024-10-04T01:02:24.179Z)
Latitude56.22085°
Longitude170.4057°
Altitude1,108.728 km
Speed7.546 km/s
True Right ascension13h 16m 54s
True Declination56° 04' 09"
Sunlit
Object was in daylight at TLE epoch
Visualization TLE readout
Latitude-8.0144°
Longitude-133.39407°
Altitude2,189.23 km
Speed6.585 km/s
Apparent Right ascension19h 18m 58s
Apparent Declination-33° 06' 30"
Sunlit
Object is in daylight
Visualization observer readout
Local Sidereal Time12:29:04
Azimuth110.32° ESE
Elevation-29.292°
Doppler factor1
Orbital elements
Apogee altitude2,188.873 km
Perigee altitude1,090.489 km
Semi-major axis8,017.818 km
Eccentricity0.0684964
Inclination59.2688°
RAAN81.3709°
Arg. of periapsis116.6859°
True anomaly348.40978°
Mean anomaly349.9107°
Eccentric anomaly349.17353°
Mean motion3.02314 °/min
BSTAR0.014083
Orbital period119.08 mins
Loading maneuver chart data...
Loading historical data...
Loading historical data...
Loading historical data...
Loading historical data...
Loading historical data...
Loading historical data...
Loading historical data...

DELTA 1 DEB Visibility forecast

Observer location: undefined°, undefined

Span
Click to sort rows by Start time (UTC) header in descending order
Start Az.
Max El. time (UTC)
Max El. Az.
Max El.
End time (UTC)
End Az.
13 mins2024-12-21 17:34:06.675Z144.776° SSE2024-12-21 17:41:06.675Z108.653° ESE17.652°2024-12-21 17:47:06.675Z74.345° E
21 mins2024-12-21 19:33:06.675Z204.27° SW2024-12-21 19:44:06.675Z128.038° SE43.424°2024-12-21 19:54:06.675Z44.184° NE
17 mins2024-12-21 21:40:06.675Z259.096° W2024-12-21 21:49:06.675Z324.485° NNW34.769°2024-12-21 21:57:06.675Z31.624° NE
12 mins2024-12-21 23:50:06.675Z310.002° NW2024-12-21 23:56:06.675Z352.496° N21.295°2024-12-22 00:02:06.675Z39.206° NE
12 mins2024-12-22 01:57:06.675Z330.434° NNW2024-12-22 02:03:06.675Z20.056° NNE25.588°2024-12-22 02:09:06.675Z77.855° E
13 mins2024-12-22 04:02:06.675Z320.459° NNW2024-12-22 04:08:06.675Z346.806° N44.801°2024-12-22 04:15:06.675Z139.983° SSE
6 mins2024-12-22 06:08:06.675Z275.294° WNW2024-12-22 06:11:06.675Z247.463° WSW15.46°2024-12-22 06:14:06.675Z219.902° SW
|